Date String (YYYY-MM-DD hh:mm:ss) UTC,Instrument flags,Ambient pressure (hPa),Sample flow (lpm),Bypass flow (lpm),Sample temperature (°C),Ambient temperature (°C),ASC tube jacket temperature (°C),LED temperature (°C),Box temperature (°C),Sample RH (%),Span deviation,Mass concentration (μg/m³),Mass concentration (μg/m³),Mass concentration (μg/m³)
DateTimeUTC,F1_M11,P_M11,Q1_M11,Q2_M11,T1_M11,T2_M11,T3_M11,T4_M11,T5_M11,U1_M11,ZSPAN_M11,X0_M11,X2_M11,X1_M11
2023-05-19 16:00:00,,0838.9,5.00,0.00,27.6,25.9,00.0,36.0,29.2,27.9,0003.3,0103.36,0081.93,0078.25
2023-05-19 16:01:00,,0838.9,5.00,0.00,27.6,25.9,00.0,36.0,29.2,27.9,0003.2,0105.09,0083.11,0079.40
2023-05-19 16:02:00,,0838.9,5.00,0.00,27.6,25.9,00.0,36.0,29.2,28.0,0003.2,0107.16,0084.34,0080.52
2023-05-19 16:03:00,,0839.0,4.99,0.00,27.6,25.9,00.0,36.0,29.2,27.9,0003.2,0108.70,0085.40,0081.58
2023-05-19 16:04:00,,0839.1,4.99,0.00,27.6,25.9,00.0,35.9,29.2,28.0,0003.2,0109.36,0085.75,0081.95
2023-05-19 16:05:00,,0839.1,5.00,0.00,27.6,25.9,00.0,35.9,29.2,28.0,0003.2,0109.65,0085.90,0082.07
2023-05-19 16:06:00,,0839.1,5.00,0.00,27.6,25.9,00.0,35.9,29.2,28.0,0003.2,0109.99,0085.93,0082.04
2023-05-19 16:07:00,,0839.1,5.01,0.00,27.6,25.9,00.0,35.9,29.2,28.1,0003.2,0110.14,0085.96,0082.10
2023-05-19 16:08:00,,0839.1,5.00,0.00,27.5,25.9,00.0,35.9,29.2,28.1,0003.2,0110.31,0085.96,0082.20
2023-05-19 16:09:00,,0839.1,5.00,0.00,27.5,25.9,00.0,35.9,29.2,28.1,0003.2,0110.49,0086.03,0082.21
2023-05-19 16:10:00,,0839.1,5.01,0.00,27.5,25.9,00.0,35.9,29.2,28.0,0003.2,0110.47,0086.05,0082.23
2023-05-19 16:11:00,,0839.1,5.00,0.00,27.5,25.9,00.0,35.9,29.2,28.1,0003.0,0110.72,0086.08,0082.23
2023-05-19 16:12:00,,0839.1,4.98,0.00,27.5,25.8,00.0,35.9,29.2,28.0,0002.8,0110.91,0086.12,0082.19
2023-05-19 16:13:00,,0839.1,5.00,0.00,27.5,25.8,00.0,35.9,29.2,28.0,0002.8,0111.27,0086.24,0082.20
2023-05-19 16:14:00,,0839.2,5.01,0.00,27.5,25.8,00.0,35.9,29.2,28.1,0002.8,0111.82,0086.22,0082.08
2023-05-19 16:15:00,,0839.1,5.00,0.00,27.5,25.9,00.0,35.9,29.2,28.0,0002.7,0112.15,0086.14,0082.00
2023-05-19 16:16:00,,0839.2,5.00,0.00,27.5,25.9,00.0,35.9,29.2,27.8,0002.8,0111.84,0086.01,0081.92
2023-05-19 16:17:00,,0839.2,5.00,0.00,27.5,25.9,00.0,35.9,29.1,27.9,0002.5,0111.74,0085.90,0081.87
2023-05-19 16:18:00,,0839.2,5.00,0.00,27.5,25.9,00.0,35.9,29.1,27.6,0002.4,0111.88,0085.80,0081.76
2023-05-19 16:19:00,,0839.2,5.00,0.00,27.5,25.9,00.0,35.9,29.1,27.6,0002.4,0111.78,0085.72,0081.59
2023-05-19 16:20:00,,0839.2,4.99,0.00,27.5,25.9,00.0,35.9,29.1,27.6,0002.2,0113.35,0085.60,0081.49
2023-05-19 16:21:00,,0839.2,5.01,0.00,27.5,25.9,00.0,35.9,29.1,27.6,0002.4,0114.15,0085.46,0081.35
2023-05-19 16:22:00,,0839.2,5.01,0.00,27.5,25.8,00.0,35.9,29.1,27.6,0002.6,0113.99,0085.38,0081.23
2023-05-19 16:23:00,,0839.2,5.00,0.00,27.5,25.8,00.0,35.9,29.1,27.5,0002.7,0114.01,0085.37,0081.14
2023-05-19 16:24:00,,0839.3,5.00,0.00,27.5,25.8,00.0,35.9,29.1,27.5,0002.6,0113.80,0085.21,0081.04
2023-05-19 16:25:00,,0839.2,5.00,0.00,27.5,25.8,00.0,35.9,29.1,27.8,0002.6,0113.33,0085.23,0081.04
2023-05-19 16:26:00,,0839.2,4.99,0.00,27.5,25.8,00.0,35.9,29.1,27.7,0002.6,0112.85,0085.25,0080.99
2023-05-19 16:27:00,,0839.2,5.00,0.00,27.5,25.8,00.0,35.9,29.1,27.5,0002.5,0113.85,0085.31,0080.97
2023-05-19 16:28:00,,0839.3,5.00,0.00,27.5,25.8,00.0,35.9,29.1,27.3,0002.5,0114.14,0085.44,0081.03
2023-05-19 16:29:00,,0839.2,5.00,0.00,27.5,25.8,00.0,35.8,29.1,27.5,0002.8,0114.39,0085.52,0081.00
2023-05-19 16:30:00,,0839.3,5.01,0.00,27.5,25.8,00.0,35.8,29.1,27.5,0002.8,0114.66,0085.50,0080.99
2023-05-19 16:31:00,,0839.3,5.00,0.00,27.4,25.8,00.0,35.8,29.1,27.5,0002.6,0113.98,0085.62,0081.05
2023-05-19 16:32:00,,0839.4,5.00,0.00,27.4,25.8,00.0,35.8,29.1,27.5,0002.3,0113.30,0085.71,0081.08
2023-05-19 16:33:00,,0839.4,4.99,0.00,27.4,25.8,00.0,35.8,29.0,27.4,0002.1,0113.47,0085.81,0081.17
2023-05-19 16:34:00,,0839.4,5.00,0.00,27.4,25.8,00.0,35.8,29.0,27.4,0001.9,0113.42,0085.75,0081.16
2023-05-19 16:35:00,,0839.4,5.00,0.00,27.4,25.8,00.0,35.8,29.0,27.3,0001.9,0113.39,0085.91,0081.27
2023-05-19 16:36:00,,0839.4,5.00,0.00,27.4,25.7,00.0,35.8,29.0,27.4,0001.9,0114.56,0086.08,0081.41
2023-05-19 16:37:00,,0839.4,5.00,0.00,27.4,25.7,00.0,35.8,29.0,27.4,0001.8,0115.77,0086.26,0081.56
2023-05-19 16:38:00,,0839.4,5.00,0.00,27.4,25.7,00.0,35.8,29.0,27.4,0001.8,0115.83,0086.46,0081.74
2023-05-19 16:39:00,,0839.4,5.00,0.00,27.4,25.7,00.0,35.8,29.0,27.6,0002.0,0116.60,0086.68,0081.88
2023-05-19 16:40:00,,0839.4,5.00,0.00,27.4,25.7,00.0,35.8,29.0,27.6,0002.2,0116.40,0086.88,0082.10
2023-05-19 16:41:00,,0839.4,5.01,0.00,27.4,25.7,00.0,35.8,29.0,27.6,0002.0,0116.79,0087.15,0082.39
2023-05-19 16:42:00,,0839.4,5.00,0.00,27.4,25.7,00.0,35.8,29.0,27.5,0002.2,0116.66,0087.46,0082.67
2023-05-19 16:43:00,,0839.4,4.99,0.00,27.4,25.7,00.0,35.8,29.0,27.5,0002.2,0116.91,0087.71,0082.93
2023-05-19 16:44:00,,0839.5,5.01,0.00,27.4,25.7,00.0,35.8,29.0,27.6,0002.4,0117.11,0087.87,0083.09
2023-05-19 16:45:00,,0839.5,5.01,0.00,27.4,25.7,00.0,35.8,29.0,27.8,0002.4,0117.57,0088.16,0083.34
2023-05-19 16:46:00,,0839.5,5.01,0.00,27.4,25.7,00.0,35.8,29.0,28.0,0002.5,0118.72,0088.55,0083.65
2023-05-19 16:47:00,,0839.5,4.99,0.00,27.4,25.7,00.0,35.8,29.0,28.1,0002.4,0119.57,0088.99,0084.06
2023-05-19 16:48:00,,0839.5,4.99,0.00,27.4,25.7,00.0,35.8,29.0,27.9,0002.2,0119.52,0089.78,0084.72
2023-05-19 16:49:00,,0839.5,5.01,0.00,27.4,25.7,00.0,35.7,29.0,27.9,0002.1,0121.38,0090.59,0085.40
2023-05-19 16:50:00,,0839.5,5.00,0.00,27.4,25.7,00.0,35.7,29.0,28.0,0002.2,0121.84,0091.41,0086.14
2023-05-19 16:51:00,,0839.5,5.01,0.00,27.4,25.7,00.0,35.7,29.0,27.9,0002.0,0122.88,0092.09,0086.82
2023-05-19 16:52:00,,0839.5,5.01,0.00,27.4,25.7,00.0,35.7,29.0,27.9,0001.9,0125.01,0093.17,0087.70
2023-05-19 16:53:00,,0839.5,5.00,0.00,27.3,25.7,00.0,35.7,29.0,28.0,0001.9,0126.61,0094.18,0088.52
2023-05-19 16:54:00,,0839.5,4.99,0.00,27.3,25.7,00.0,35.7,29.0,28.0,0001.9,0128.24,0095.21,0089.40
2023-05-19 16:55:00,,0839.5,5.00,0.00,27.3,25.7,00.0,35.7,29.0,28.0,0001.7,0130.42,0096.38,0090.39
2023-05-19 16:56:00,,0839.6,5.01,0.00,27.3,25.7,00.0,35.7,29.0,28.1,0001.5,0132.52,0097.40,0091.30
2023-05-19 16:57:00,,0839.5,5.01,0.00,27.3,25.7,00.0,35.7,29.0,27.9,0001.6,0133.26,0098.18,0092.10
2023-05-19 16:58:00,,0839.6,5.00,0.00,27.3,25.7,00.0,35.7,29.0,28.0,0001.7,0133.85,0098.91,0092.77
2023-05-19 16:59:00,,0839.5,4.99,0.00,27.3,25.7,00.0,35.7,28.9,28.0,0001.7,0134.62,0099.40,0093.27
